GFSCGP_925_temp_123.txt.gz
Temp
11 9 8 9 10 12 11 11 10 11 13 12 13 13 14 16 17 19 21 22 21 22 22 23 27 26 26 26 24 23 21 22 20 19 18 18 18 19 19 20 20 20 20 20
10 8 11 11 11 11 11 10 10 11 12 12 12 12 14 16 16 19 20 22 20 21 20 21 23 26 26 23 25 23 23 22 20 19 19 19 18 18 19 20 20 20 20 20
9 11 12 12 11 11 11 10 10 11 12 12 11 11 13 15 17 19 21 21 23 20 21 22 22 22 24 23 22 23 23 22 21 19 19 19 18 19 18 18 19 19 19 19
8 10 11 10 10 11 9 12 12 9 8 8 11 9 12 14 17 18 20 20 19 18 19 20 17 16 15 15 18 18 19 19 18 19 18 19 18 18 20 21 21 21 20 19
9 10 10 9 10 12 10 12 10 9 9 9 9 10 12 14 15 17 18 19 19 19 16 14 14 14 13 13 13 15 16 16 17 18 18 17 17 17 17 19 19 20 20 19
10 12 11 11 13 12 12 11 10 10 9 8 10 11 10 14 16 18 18 18 16 15 14 14 14 13 12 12 12 13 13 13 15 16 16 16 17 16 16 16 17 18 18 18
11 11 12 12 11 13 11 10 8 8 8 9 13 11 12 15 15 16 16 16 16 15 14 13 11 11 10 10 10 10 10 10 11 13 14 15 15 15 16 16 15 16 16 17
9 9 13 14 11 12 11 10 10 8 11 12 14 12 14 15 18 17 16 15 13 12 11 10 10 10 9 8 8 8 8 8 9 11 12 12 13 13 14 14 14 14 15 16
10 10 13 13 14 12 12 11 13 12 11 11 13 14 14 14 14 13 13 12 10 10 9 9 9 8 7 7 6 6 6 6 6 7 9 11 12 12 12 13 13 13 14 15
10 10 13 13 13 12 11 13 13 12 12 13 12 12 14 13 12 11 10 9 9 8 8 8 8 6 6 5 5 5 4 4 4 5 5 5 6 8 8 9 10 11 13 13
9 9 11 13 10 10 11 11 12 13 12 13 12 13 14 12 11 10 9 8 7 7 6 6 6 5 4 4 3 3 3 3 3 3 3 4 4 5 5 7 8 9 11 12
10 9 9 12 13 13 13 10 11 11 12 12 12 12 11 11 10 9 9 8 7 6 6 5 5 4 4 3 2 2 1 1 2 3 3 4 4 4 5 5 7 8 10 12
9 9 8 10 12 13 11 12 11 11 11 12 12 11 8 8 8 7 7 6 6 6 5 4 4 3 3 2 1 1 1 1 1 1 1 2 2 2 3 4 5 8 10 12
10 9 7 7 9 9 10 11 12 12 11 13 12 10 8 7 6 5 5 4 5 5 4 4 3 2 2 1 1 0 1 0 -0 0 0 1 1 1 1 3 4 6 9 11
9 8 9 10 11 9 10 10 10 11 11 12 11 10 8 6 6 4 4 4 3 3 3 3 2 2 1 0 0 -0 0 -0 -1 -1 -1 -0 0 0 1 2 3 6 8 11
8 7 9 10 12 10 9 9 9 10 9 11 10 8 6 5 6 5 5 4 4 3 3 2 2 1 0 -0 -1 -1 -1 -1 -1 -1 -1 -1 -1 -0 0 1 2 4 7 11
7 7 8 10 12 10 9 7 8 8 7 9 10 8 5 5 4 3 3 3 2 2 2 1 1 -0 -1 -2 -2 -2 -1 -1 -1 -1 -2 -2 -2 -1 -1 0 2 3 6 10
7 8 8 9 10 10 8 6 7 7 6 6 7 6 5 4 3 3 2 2 1 1 0 0 -1 -2 -2 -3 -3 -2 -2 -2 -2 -2 -3 -3 -3 -2 -1 -0 1 2 4 8
7 8 7 8 9 9 10 7 6 7 7 6 6 6 6 5 6 2 2 1 0 -0 -1 -1 -2 -3 -3 -4 -3 -3 -2 -3 -3 -3 -4 -4 -4 -3 -2 -1 -0 1 3 7
9 7 8 8 10 8 7 6 6 7 7 6 5 5 5 6 6 3 2 1 -0 -1 -2 -3 -3 -4 -4 -4 -4 -3 -3 -3 -3 -4 -5 -5 -4 -3 -3 -2 -1 -0 3 8
7 7 7 7 9 7 5 5 6 8 5 5 5 4 4 4 3 1 1 0 -1 -2 -3 -3 -3 -4 -4 -4 -4 -4 -4 -3 -3 -4 -5 -5 -5 -4 -3 -3 -2 -1 1 2
7 7 7 6 7 6 4 6 5 4 3 3 3 5 4 3 3 1 1 -0 -2 -3 -4 -5 -5 -4 -4 -4 -4 -4 -4 -4 -4 -4 -5 -5 -5 -4 -4 -3 -3 -2 0 0
4 7 7 6 5 4 3 3 3 3 3 3 2 3 4 3 2 1 0 -1 -3 -4 -5 -5 -6 -6 -6 -5 -5 -4 -5 -4 -4 -5 -5 -5 -5 -4 -4 -4 -3 -3 -2 -2
6 5 5 5 4 4 3 3 3 2 2 2 1 2 3 1 1 -1 -2 -2 -3 -5 -6 -6 -7 -6 -6 -6 -5 -5 -5 -5 -4 -5 -5 -5 -6 -5 -5 -5 -4 -4 -3 -3
5 4 4 4 4 3 2 2 1 2 1 1 1 0 1 -0 -2 -3 -3 -3 -5 -6 -6 -7 -7 -7 -7 -6 -6 -5 -5 -5 -4 -4 -5 -5 -5 -6 -5 -5 -5 -5 -4 -4
4 3 2 -1 2 2 1 1 0 -1 1 -0 -0 -1 -2 -2 -3 -4 -5 -5 -5 -6 -7 -7 -7 -7 -7 -6 -6 -6 -5 -5 -5 -5 -6 -6 -6 -6 -6 -6 -6 -6 -6 -5

GFSCGP_925_temp_126.txt.gz
Temp
10 9 8 8 9 10 10 10 9 10 12 11 11 11 12 13 13 13 14 15 16 18 21 22 23 23 22 22 21 20 20 19 17 17 17 16 16 17 19 20 20 20 20 20
9 8 10 10 9 9 9 9 9 10 11 11 11 11 12 12 13 13 13 14 16 16 19 21 22 21 21 21 21 21 21 20 19 18 17 18 17 16 17 18 20 20 20 20
9 10 11 11 10 9 10 9 10 10 11 11 10 10 11 12 12 13 14 15 16 17 18 20 20 20 20 20 20 20 21 20 19 18 17 18 17 17 17 17 18 20 19 20
8 9 10 10 9 10 8 11 12 11 9 10 9 9 11 11 12 13 14 15 16 17 19 20 20 14 14 17 19 19 19 19 18 18 18 18 17 17 17 17 17 19 20 20
9 10 9 8 9 11 9 11 11 11 9 8 10 7 11 11 11 13 14 15 17 18 19 14 12 11 11 12 13 15 17 17 17 18 18 17 17 18 17 17 17 16 16 17
9 11 11 10 11 11 12 10 10 9 8 8 11 8 10 11 13 14 13 12 12 12 12 12 12 11 10 10 10 11 12 12 14 16 16 17 16 16 17 18 21 20 18 17
9 10 11 11 10 12 10 9 8 8 7 11 13 9 10 13 14 15 13 11 10 10 9 9 8 8 8 7 8 8 8 8 10 12 12 13 13 13 14 16 19 19 17 16
7 7 12 12 11 12 11 9 10 8 12 11 13 10 12 13 12 11 10 10 9 8 7 7 6 6 6 6 6 6 6 6 8 8 9 10 11 12 12 13 13 16 15 15
8 8 12 12 12 12 11 11 11 11 12 10 11 13 13 12 11 10 9 8 8 7 7 6 5 5 5 4 4 4 4 4 5 6 7 8 9 11 11 12 13 13 14 14
9 8 11 12 12 13 11 12 11 11 10 12 13 11 10 11 9 8 7 7 7 7 7 6 5 5 4 3 3 2 3 3 3 3 5 6 7 8 9 10 11 11 12 13
8 8 10 11 10 10 10 11 10 11 11 12 12 12 7 9 9 8 7 6 6 5 5 5 5 4 3 3 2 2 2 2 1 2 3 3 4 5 8 9 8 8 9 10
9 8 9 10 12 12 12 10 10 11 12 12 11 10 6 6 6 6 6 6 6 5 4 4 3 3 2 2 1 1 1 1 0 1 1 2 2 3 3 4 5 6 6 8
9 8 7 9 12 12 10 11 10 10 11 12 12 9 6 5 5 5 5 4 4 4 3 3 3 2 2 1 1 1 1 -0 -0 -0 -0 0 0 1 1 1 2 4 4 6
9 8 6 5 7 8 9 9 10 12 11 12 10 8 6 6 5 4 4 3 3 3 2 2 1 1 1 0 -0 -0 -0 -1 -1 -1 -1 -1 -1 -1 -0 0 1 2 3 4
9 7 8 8 10 9 8 8 8 9 10 11 9 7 6 5 4 4 3 3 2 2 2 1 0 0 -0 -1 -1 -1 -1 -1 -1 -1 -1 -1 -1 -1 -1 -0 0 1 2 4
7 7 8 9 10 9 8 8 9 8 8 10 8 7 5 4 3 3 3 2 2 1 1 1 0 -0 -1 -2 -2 -2 -1 -2 -2 -2 -2 -2 -2 -2 -1 -1 -0 0 1 3
6 6 8 9 11 10 8 7 7 7 6 7 7 6 5 4 3 2 2 2 1 1 0 -0 -1 -2 -2 -3 -3 -2 -2 -2 -2 -2 -3 -3 -3 -3 -2 -2 -1 -0 1 2
7 7 8 8 9 9 8 7 6 7 6 5 6 5 4 3 2 2 1 0 -0 -0 -1 -1 -2 -3 -3 -3 -3 -3 -2 -3 -3 -3 -4 -4 -4 -4 -3 -2 -2 -1 -0 1
6 7 8 8 9 9 9 6 5 6 6 5 5 5 5 4 4 2 1 -0 -1 -2 -2 -3 -3 -3 -4 -4 -3 -3 -3 -3 -3 -4 -5 -5 -5 -4 -3 -3 -2 -2 -1 0
6 6 7 7 9 7 6 5 5 5 6 4 5 4 4 5 4 2 0 -1 -1 -3 -3 -4 -4 -4 -4 -4 -4 -4 -4 -4 -4 -4 -5 -5 -5 -4 -4 -3 -3 -2 -2 -0
7 7 7 6 8 7 4 4 5 7 4 3 3 4 3 3 2 1 0 -1 -2 -4 -5 -5 -5 -5 -5 -5 -4 -4 -4 -4 -4 -5 -5 -6 -5 -5 -4 -4 -3 -3 -2 -1
7 7 7 7 6 5 3 5 5 4 3 3 2 3 3 3 2 1 -1 -2 -4 -5 -6 -6 -7 -6 -6 -5 -5 -5 -5 -5 -4 -5 -5 -6 -5 -5 -5 -5 -4 -3 -3 -2
4 7 7 6 5 4 3 3 2 2 2 2 2 1 3 1 0 -1 -2 -2 -5 -6 -7 -7 -7 -6 -6 -6 -5 -5 -5 -5 -4 -5 -5 -5 -6 -6 -6 -6 -5 -4 -4 -3
5 5 5 4 4 3 2 2 2 1 1 1 -0 0 -0 -1 -2 -3 -3 -4 -5 -7 -7 -7 -7 -7 -7 -7 -6 -5 -5 -5 -5 -5 -6 -6 -6 -6 -6 -6 -6 -6 -5 -4
5 4 4 5 3 3 2 1 0 1 0 0 -1 -2 -1 -2 -3 -4 -5 -5 -6 -6 -7 -7 -8 -7 -7 -7 -6 -6 -6 -5 -5 -6 -6 -6 -6 -7 -6 -6 -7 -7 -7 -6
4 3 2 4 2 2 1 1 1 -0 0 -1 -1 -1 -3 -3 -4 -5 -5 -6 -6 -7 -7 -7 -8 -8 -8 -7 -7 -6 -6 -6 -6 -6 -7 -7 -7 -7 -7 -7 -7 -7 -8 -8

GFSCGP_925_temp_129.txt.gz
Temp
11 12 13 13 12 13 12 12 12 13 14 13 13 14 15 15 15 15 15 15 16 16 18 18 18 19 21 22 21 20 19 18 17 17 16 16 16 16 16 16 16 16 17 17
11 11 12 11 11 10 11 11 12 13 14 14 14 13 14 15 15 15 15 16 16 16 16 17 18 19 20 21 21 20 19 19 18 18 17 18 17 17 17 16 16 16 16 17
11 13 12 11 12 11 12 11 12 12 13 13 12 14 17 17 16 17 16 16 15 16 16 17 17 19 20 20 21 20 20 20 18 18 18 18 17 17 16 16 16 16 16 17
10 10 11 11 11 11 11 12 12 12 11 11 13 10 15 18 17 17 16 16 15 16 16 16 17 18 20 19 19 21 20 20 19 18 18 18 18 18 17 18 16 16 16 16
12 11 10 9 11 11 11 12 12 12 11 10 13 10 16 18 17 16 16 16 14 15 17 17 17 18 14 13 16 17 17 18 18 18 18 18 18 18 18 17 16 16 17 16
11 11 11 11 12 11 13 12 12 11 9 9 12 12 16 15 10 10 13 11 10 12 15 14 12 11 11 10 11 11 12 11 15 16 17 17 17 16 16 16 16 16 16 16
11 11 11 11 11 13 12 12 12 12 11 14 14 14 16 11 9 8 9 7 7 7 7 8 8 9 9 9 9 9 10 9 10 12 13 14 14 15 15 15 15 15 15 17
9 12 12 12 12 12 12 10 12 11 13 14 15 14 13 11 8 6 7 5 7 6 6 6 6 6 6 7 7 7 8 7 7 8 8 10 12 13 12 12 13 13 14 15
9 10 12 12 13 12 10 10 12 10 12 11 14 13 12 10 8 6 5 5 4 5 6 5 5 4 5 4 4 4 5 5 5 5 6 8 8 9 9 10 12 13 13 13
10 8 11 12 13 13 12 12 11 11 11 12 15 11 9 7 6 6 5 4 3 4 5 5 4 4 3 3 3 3 3 3 3 4 4 4 5 6 6 8 9 11 12 13
9 9 11 12 12 12 12 12 11 11 11 12 13 10 6 6 6 5 4 3 3 3 3 3 4 3 2 2 2 2 2 2 2 2 3 3 3 4 5 5 6 8 9 9
10 9 9 11 12 13 12 11 11 11 12 13 12 8 6 5 5 4 4 3 2 2 2 2 2 2 1 1 1 1 1 1 1 1 2 2 2 3 4 4 5 5 6 6
10 9 8 11 12 12 10 10 9 10 10 11 12 10 5 5 4 4 3 3 2 2 1 1 0 0 -0 0 0 0 0 0 -0 0 1 1 1 1 1 2 2 2 3 4
10 9 9 9 9 8 9 9 9 9 11 11 9 7 6 5 4 3 3 2 2 1 1 0 -0 -1 -1 -1 -1 -0 -1 -1 -1 -0 0 0 0 0 1 1 1 1 2 3
9 9 9 10 10 9 8 9 8 7 9 10 7 6 5 4 3 3 2 2 1 1 0 -0 -1 -1 -2 -2 -2 -1 -1 -1 -1 -1 -1 -1 -1 -1 -1 -0 0 0 1 2
8 9 9 10 11 9 8 8 9 7 7 8 7 6 5 4 4 3 2 1 1 0 -0 -0 -0 -1 -2 -2 -2 -2 -2 -2 -2 -2 -2 -2 -2 -2 -1 -1 -0 0 0 1
8 8 9 10 11 9 8 6 7 7 6 6 7 6 4 4 3 1 1 1 0 -0 -1 -1 -1 -2 -3 -3 -3 -3 -3 -3 -2 -2 -2 -3 -3 -2 -2 -2 -1 -1 -1 -0
8 8 9 10 10 9 7 7 6 6 6 5 5 5 4 3 2 2 1 0 -1 -1 -1 -2 -3 -3 -3 -3 -3 -3 -3 -3 -3 -3 -3 -3 -3 -3 -3 -2 -2 -1 -1 -1
7 8 9 9 10 8 8 6 5 6 6 5 5 5 5 4 4 2 1 -0 -1 -2 -3 -4 -4 -4 -4 -4 -4 -4 -4 -3 -4 -4 -4 -4 -4 -4 -3 -3 -3 -2 -2 -1
7 7 8 9 9 9 6 6 5 5 6 4 4 4 4 5 5 2 -0 -1 -2 -3 -4 -5 -5 -4 -5 -5 -4 -4 -4 -4 -4 -5 -5 -5 -4 -4 -4 -4 -4 -3 -3 -2
8 8 7 7 8 7 4 5 5 8 5 3 3 3 3 3 2 0 -1 -2 -3 -4 -5 -5 -5 -5 -5 -5 -5 -4 -4 -4 -4 -5 -6 -6 -5 -5 -5 -5 -5 -4 -3 -3
8 8 7 7 7 7 4 6 6 3 3 3 2 2 2 2 0 -1 -1 -2 -4 -5 -6 -6 -6 -5 -6 -6 -5 -5 -5 -5 -5 -6 -6 -6 -6 -6 -6 -6 -6 -5 -4 -4
7 7 7 7 6 4 3 3 2 2 3 2 1 1 1 0 -1 -1 -2 -3 -5 -6 -7 -7 -7 -6 -6 -6 -6 -5 -5 -5 -5 -6 -6 -6 -6 -6 -6 -6 -6 -6 -5 -4
6 6 6 5 4 3 2 2 2 2 1 1 0 0 0 -1 -2 -2 -3 -3 -5 -6 -6 -7 -7 -7 -7 -7 -6 -6 -6 -5 -5 -6 -6 -6 -6 -6 -6 -6 -6 -7 -6 -6
6 6 4 5 3 2 2 1 1 1 1 1 -1 -1 -1 -2 -3 -3 -4 -5 -5 -6 -6 -7 -7 -7 -7 -7 -7 -7 -6 -6 -5 -6 -6 -6 -6 -7 -7 -7 -7 -7 -7 -8
5 4 5 5 3 3 2 1 1 1 0 -1 -1 -2 -3 -3 -4 -4 -5 -6 -6 -6 -6 -6 -7 -7 -8 -7 -7 -7 -7 -6 -6 -6 -6 -7 -6 -7 -7 -7 -7 -8 -8 -8

GFSCGP_925_temp_132.txt.gz
Temp
16 18 19 19 17 17 16 17 18 20 20 17 18 19 20 22 22 22 22 22 22 22 23 21 20 20 20 21 22 23 24 22 20 18 18 18 18 17 19 20 19 19 17 17
16 18 17 16 16 15 16 17 18 19 18 17 18 18 20 22 23 23 22 21 22 22 22 21 20 20 20 20 20 22 23 23 21 20 19 19 19 19 18 18 18 18 16 16
16 17 15 15 16 16 17 17 17 17 17 18 17 20 23 22 24 20 17 17 19 19 20 21 21 20 19 19 19 20 23 24 22 21 20 20 21 21 20 20 20 19 18 17
15 15 14 15 15 16 15 17 16 16 16 16 17 16 20 22 18 14 14 12 10 12 15 17 19 20 19 19 19 20 22 23 22 21 21 20 21 22 22 21 21 20 19 19
15 14 14 12 15 15 16 16 15 16 16 14 17 16 21 17 11 10 11 9 7 7 11 15 20 20 20 19 19 20 22 23 23 21 21 21 21 22 22 21 21 19 18 19
15 15 14 16 15 15 16 15 17 16 14 13 18 17 19 11 9 8 7 8 6 5 7 9 10 14 16 16 17 19 20 22 23 21 20 21 21 22 22 20 19 18 17 17
16 15 15 14 15 16 15 16 17 17 16 18 19 18 11 12 9 7 6 6 4 4 4 5 6 7 8 10 12 12 11 9 11 15 16 18 20 19 19 18 17 16 16 16
15 14 15 15 14 14 15 15 15 14 17 17 19 18 13 12 11 8 6 5 4 3 3 3 4 5 5 5 8 8 8 8 8 8 9 11 12 14 14 14 16 16 16 16
13 14 15 15 15 15 12 15 15 13 16 14 19 17 14 12 11 8 5 5 3 3 2 2 3 3 4 4 5 5 7 7 6 7 8 9 9 10 11 11 13 14 15 15
13 13 14 15 15 15 15 16 15 14 13 14 18 12 10 8 8 7 4 3 3 2 2 1 1 1 2 3 4 4 5 6 6 6 7 8 9 9 10 10 11 11 12 12
13 12 14 15 14 15 16 15 14 14 14 15 16 11 7 6 6 5 4 3 2 2 1 1 0 -0 0 1 2 3 2 3 5 5 6 6 6 7 7 8 9 8 8 10
12 12 13 14 15 15 14 13 13 12 14 15 14 10 7 6 5 4 4 2 2 1 1 0 -0 -0 0 1 1 1 2 2 3 4 5 5 5 5 5 6 6 5 8 8
12 13 12 14 14 15 13 13 12 12 11 12 12 10 6 5 5 4 3 2 2 1 0 -0 -1 -1 -1 -1 -1 -0 -0 -0 0 2 2 2 3 4 5 5 3 5 5 6
11 13 11 12 11 11 11 12 12 12 12 11 9 8 7 5 4 3 3 2 2 1 0 -0 -0 -1 -2 -2 -2 -1 -1 -1 -1 0 1 2 2 2 3 3 3 4 4 5
12 12 12 13 14 11 9 11 10 9 10 11 8 7 6 5 4 3 2 2 1 1 0 -0 -0 -1 -2 -2 -2 -2 -2 -1 -0 -1 -1 -0 0 2 2 3 3 3 3 4
12 12 12 13 13 11 9 11 11 9 8 9 8 8 6 5 5 5 4 2 1 1 0 0 -1 -1 -2 -2 -2 -2 -2 -1 -1 -0 -1 -1 0 0 1 1 2 3 3 3
11 12 12 13 14 9 10 7 8 7 7 7 8 6 5 6 5 4 4 3 1 1 0 -0 -0 -1 -2 -2 -2 -2 -1 -1 -0 -0 -1 -1 -1 -0 -0 1 1 1 2 2
11 11 11 13 13 11 7 7 7 6 6 6 6 5 6 5 5 5 3 2 1 1 0 -0 -2 -2 -3 -3 -2 -2 -1 -1 -1 -1 -1 -1 -1 -1 -1 -1 -0 0 1 1
11 11 12 12 13 9 8 9 7 7 6 6 6 6 7 6 6 6 3 2 1 0 -1 -1 -2 -3 -3 -3 -3 -3 -2 -2 -2 -2 -2 -2 -2 -1 -1 -2 -2 -1 -0 0
11 11 11 12 12 12 9 8 7 7 8 5 6 5 6 8 8 5 2 2 1 -0 -1 -2 -2 -2 -4 -4 -4 -4 -4 -4 -4 -4 -3 -3 -2 -2 -2 -2 -2 -2 -1 0
10 10 11 11 12 9 8 8 7 8 6 5 5 4 5 4 3 2 2 1 -0 -1 -2 -3 -2 -3 -4 -4 -4 -4 -4 -4 -5 -5 -4 -4 -4 -3 -3 -3 -3 -3 -3 -1
10 11 10 10 11 10 8 9 9 4 5 5 5 4 3 3 2 2 1 1 -1 -3 -3 -4 -3 -3 -4 -5 -5 -4 -4 -5 -5 -5 -5 -5 -5 -5 -5 -4 -4 -4 -4 -3
9 10 10 9 8 6 7 5 4 4 4 3 3 3 3 3 2 1 1 -0 -2 -4 -4 -5 -4 -4 -4 -5 -5 -5 -5 -5 -4 -4 -4 -5 -4 -5 -5 -5 -5 -4 -5 -4
8 8 8 8 5 6 5 5 5 4 3 3 3 3 3 2 1 1 1 -1 -2 -4 -4 -5 -5 -5 -5 -5 -5 -5 -5 -4 -4 -4 -4 -5 -4 -5 -5 -5 -5 -5 -6 -6
10 8 7 6 5 4 5 4 4 3 3 2 1 1 1 2 1 0 -0 -1 -2 -3 -4 -5 -5 -5 -5 -5 -5 -5 -5 -4 -4 -4 -4 -4 -4 -5 -5 -5 -5 -6 -7 -8
9 7 7 7 5 5 4 3 3 2 2 2 2 1 -0 -1 -1 -1 -2 -3 -3 -4 -4 -4 -5 -6 -6 -6 -6 -6 -6 -5 -5 -5 -5 -5 -5 -5 -5 -5 -5 -5 -7 -8